Find Kosmos-2300

NORAD ID: 23442 Int'l Des: 1994-086 Owner: VKS Country: RU operational
LEOCIRCULARPOLAR

Current View

Loading 3D Globe...

About Kosmos-2300

Description loading...

Upcoming Passes

Passes for default location (London). Set your location on the main map for personalized predictions.

Altitude History

Loading altitude history...

Two-Line Element Set

1 23442U 94086B 26150.93049354 .00000023 00000-0 67814-4 0 9998
2 23442 82.5620 314.8006 0001335 279.7927 197.4125 12.62806770448416
Epoch: May 30, 2026 • Age: 19 hours

Current Status

Altitude 1425.4 km
Velocity 7.15 km/s
Sub-Earth Point 76.45°N, 159.42°W
Launch Date Dec 26, 1994
Age 31.4 years
Type other

Technical Details

Classification Payload
Mass 225.00 kg
Dry Mass 225.00 kg
Total Mass 225.00 kg
Length 1.60 m
Diameter 0.80 m
Span 7.00 m
Shape Cyl + Ant
Manufacturer NPOPMR
Bus Type Strela-3
Phase Status In Orbit
Owner/State VKS/RU

Most Searched